[[{"header":{"parameterUnit":"m.s-1","parameterCategory":1,"la1":30.2991,"la2":30.254,"lo1":-89.0895,"lo2":-89.0444,"dy":0.0017,"dx":0.0017,"nx":28,"ny":28,"refTime":"2023-08-07T09:00:00:Z","depth":0,"parameterNumber":2,"parameterNumberName":"U-component_of_WINDS"},"data":[0,0,0,0,0,0,0,0,0,0,0,0,0,0,0,0,0,0,0,0,0,0,0,0,0,0,0,0,0,0,0,0,0,0,0,0,0,0,0,0,0,0,0,0,0,0,0,0,0,0,0,0,0,0,0,0,0,0,2.2479,2.248,0,2.2591,2.2592,2.2593,2.2619,2.2618,2.2618,2.2617,2.2737,2.274,2.2744,0,0,0,0,0,0,0,0,0,0,0,0,0,2.2294,2.2297,2.2479,2.248,2.2482,2.259,2.2592,2.2594,2.2619,2.2618,2.2617,2.2616,2.2735,2.274,2.2745,0,0,0,0,0,0,0,0,0,0,0,0,0,2.2387,2.2298,2.2479,2.2508,2.2511,2.259,2.2592,2.2594,2.2619,2.2618,2.2617,2.2616,2.2734,2.274,2.2745,2.2805,0,0,2.2763,2.2766,0,0,0,0,0,0,0,0,2.2382,2.2394,2.2502,2.2506,2.251,2.259,2.2571,2.2665,2.262,2.2579,2.2617,2.2615,2.2689,2.2699,2.2722,2.2811,2.2816,2.2764,2.2767,2.277,2.2772,0,0,0,0,0,0,0,2.2375,2.2389,2.2523,2.2504,2.2508,2.2517,2.2529,2.2589,2.2639,2.2582,2.2584,2.2597,2.2691,2.2716,2.2725,2.2818,2.2764,2.2769,2.2772,2.2775,2.2962,2.2963,0,0,0,0,0,0,2.2363,2.2384,2.252,2.2527,2.2441,2.2521,2.2534,2.2565,2.2639,2.2648,2.2598,2.2598,2.2707,2.2718,2.273,2.2805,2.277,2.2775,2.2779,2.2961,2.2962,2.2964,0,0,0,0,0,0,2.2359,2.2375,2.2515,2.2456,2.2474,2.2525,2.256,2.2568,2.2593,2.265,2.266,2.2614,2.2707,2.2721,2.2786,2.2809,2.2778,2.2783,2.2959,2.2961,2.2963,2.2955,0,0,0,0,0,0,2.2353,2.2373,2.2395,2.2456,2.2477,2.2568,2.2561,2.2571,2.2603,2.2604,2.2668,2.2678,2.2707,2.2777,2.2792,2.2817,2.2788,2.2957,2.296,2.2962,2.2953,2.2957,2.2959,0,0,0,0,0,2.2347,2.2389,2.2396,2.2412,2.2505,2.2569,2.2582,2.2612,2.2605,2.2628,2.2665,2.2676,2.2804,2.2783,2.28,2.2827,2.2956,2.2959,2.2962,2.2952,2.2956,2.2959,0,0,0,0,0,0,2.2331,2.2398,2.2406,2.2469,2.2513,2.2573,2.2603,2.2616,2.2664,2.2663,2.2701,2.2716,2.2778,2.281,2.2785,2.289,2.288,2.2887,2.2867,2.2871,2.2874,2.2865,2.2793,0,0,0,0,0,2.2335,2.2379,2.2436,2.2486,2.2508,2.2552,2.2581,2.2601,2.2649,2.2668,2.2709,2.2757,2.2808,2.2841,2.2892,2.2958,2.2973,2.2985,2.2988,2.299,2.2996,2.3034,2.3041,2.2975,2.2975,2.2974,0,0,2.2343,2.2385,2.2411,2.2484,2.2521,2.2568,2.2567,2.2617,2.2653,2.2676,2.2739,2.2771,2.2828,2.2893,2.2925,2.2921,2.3018,2.2995,2.2996,2.3,2.3038,2.3044,2.305,2.2977,2.2976,2.2976,0,0,2.2383,2.2419,2.2464,2.2501,2.2556,2.2585,2.2596,2.2655,2.2676,2.274,2.2758,2.2803,2.289,2.2929,2.2961,2.3016,2.3028,2.3031,2.3047,2.3084,2.3089,2.3094,2.3114,2.312,2.3037,2.3037,2.3037,0,2.2387,2.2456,2.2487,2.2536,2.2568,2.259,2.2638,2.2672,2.2741,2.2764,2.2759,2.2869,2.2908,2.2984,2.2997,2.3022,2.3037,2.3024,2.3085,2.3091,2.3096,2.3115,2.3123,2.3037,2.3037,2.3037,2.3037,0,2.2459,2.2507,2.2539,2.2603,2.2639,2.2687,2.2726,2.2759,2.2777,2.2807,2.2872,2.292,2.298,2.3,2.3018,2.3079,2.3075,2.3077,2.3069,2.3101,2.312,2.3128,2.3037,2.3037,2.3037,2.3037,0,0,2.2491,2.2572,2.2583,2.2612,2.2675,2.2714,2.2764,2.2821,2.2849,2.2897,2.294,2.3014,2.3016,2.3052,2.3075,2.3107,2.3148,2.3106,2.3108,2.3112,2.3219,2.3217,2.3225,2.3157,2.3159,2.316,2.3214,0,2.2538,2.2626,2.2655,2.2729,2.2775,2.2797,2.284,2.2885,2.2914,2.2959,2.2993,2.3045,2.3044,2.3065,2.3099,2.3136,2.317,2.3133,2.32,2.3202,2.3184,2.3235,2.3232,2.3281,2.3222,2.3223,2.3224,0,2.2605,2.2651,2.2728,2.2786,2.2806,2.2844,2.29,2.2942,2.2993,2.3013,2.3052,2.3073,2.3128,2.3116,2.3193,2.3167,2.3197,2.3219,2.3222,2.3229,2.3215,2.3243,2.3298,2.3305,2.3236,2.3235,2.3235,0,2.262,2.2703,2.276,2.2785,2.2853,2.2879,2.2909,2.2959,2.2992,2.3041,2.3063,2.3119,2.315,2.3194,2.3229,2.3217,2.3304,2.3295,2.3323,2.3322,2.334,2.3338,2.3399,2.3359,2.3359,2.3358,2.3358,0,2.2669,2.2716,2.2768,2.2803,2.2856,2.2891,2.2943,2.2975,2.3019,2.3062,2.3086,2.3126,2.3171,2.3218,2.3246,2.3306,2.332,2.3339,2.3346,2.3336,2.3334,2.3356,2.3354,2.336,2.336,2.336,2.3359,0,2.2696,2.2732,2.2795,2.2855,2.2871,2.2907,2.2959,2.2995,2.3026,2.308,2.3095,2.3145,2.3201,2.3241,2.3314,2.3333,2.3398,2.3405,2.338,2.3383,2.3409,2.3406,2.3486,2.3499,2.345,2.345,2.3451,0,2.2724,2.276,2.2823,2.2853,2.2882,2.293,2.2963,2.2999,2.3034,2.3095,2.3124,2.3181,2.3229,2.3319,2.3362,2.3419,2.3427,2.3451,2.3436,2.3425,2.3428,2.3425,2.3429,2.3454,2.3454,2.3454,2.3454,0,2.2772,2.2788,2.2834,2.2887,2.2926,2.2969,2.3014,2.3037,2.3082,2.3119,2.3176,2.3213,2.3287,2.3344,2.3405,2.3438,2.3454,2.3459,2.3469,2.3459,2.3443,2.3452,2.3386,2.3457,2.3457,2.3457,2.3456,2.3456,2.28,2.2833,2.2882,2.2934,2.297,2.3011,2.3048,2.3083,2.3131,2.3192,2.3212,2.3271,2.3323,2.3405,2.3439,2.3488,2.3486,2.35,2.3504,2.3506,2.3506,2.3435,2.3499,2.3499,2.3499,2.3499,2.3499,0,2.2849,2.2881,2.2928,2.2988,2.3029,2.3039,2.3089,2.3122,2.3174,2.322,2.3266,2.3332,2.3388,2.3436,2.3494,2.3524,2.3533,2.3538,2.3536,2.3543,2.3504,2.3489,2.353,2.353,2.353,2.353,2.353,2.353,2.2878,2.2935,2.2957,2.3033,2.3067,2.3123,2.3151,2.3189,2.3226,2.3298,2.3344,2.3374,2.3422,2.3484,2.3536,2.3549,2.357,2.3573,2.3588,2.355,2.3546,2.3543,2.353,2.3577,2.3578,2.3624,2.3624,2.3624]},{"header":{"parameterUnit":"m.s-1","parameterCategory":1,"la1":30.2991,"la2":30.254,"lo1":-89.0895,"lo2":-89.0444,"dy":0.0017,"dx":0.0017,"nx":28,"ny":28,"refTime":"2023-08-07T09:00:00:Z","depth":0,"parameterNumber":3,"parameterNumberName":"V-component_of_WINDS"},"data":[0,0,0,0,0,0,0,0,0,0,0,0,0,0,0,0,0,0,0,0,0,0,0,0,0,0,0,0,0,0,0,0,0,0,0,0,0,0,0,0,0,0,0,0,0,0,0,0,0,0,0,0,0,0,0,0,0,0,1.0849,1.0849,0,1.0873,1.0873,1.0873,1.0884,1.0884,1.0884,1.0884,1.0908,1.0908,1.0909,0,0,0,0,0,0,0,0,0,0,0,0,0,1.081,1.081,1.0849,1.0849,1.0849,1.0873,1.0873,1.0873,1.0884,1.0884,1.0884,1.0884,1.0908,1.0908,1.0909,0,0,0,0,0,0,0,0,0,0,0,0,0,1.0829,1.0811,1.0849,1.0858,1.0859,1.0873,1.0873,1.0874,1.0884,1.0884,1.0884,1.0884,1.0907,1.0908,1.0909,1.0916,0,0,1.0912,1.0913,0,0,0,0,0,0,0,0,1.0828,1.0831,1.0856,1.0857,1.0858,1.0875,1.0868,1.0888,1.0884,1.0874,1.0884,1.0884,1.0897,1.0899,1.0903,1.0917,1.0918,1.0912,1.0913,1.0913,1.0914,0,0,0,0,0,0,0,1.0827,1.083,1.0858,1.0856,1.0858,1.0859,1.0862,1.0872,1.0886,1.0875,1.0876,1.0879,1.0898,1.0902,1.0904,1.0919,1.0912,1.0913,1.0914,1.0914,1.0936,1.0936,0,0,0,0,0,0,1.0824,1.0829,1.0858,1.0859,1.0843,1.086,1.0863,1.087,1.0886,1.0888,1.0879,1.0879,1.0901,1.0903,1.0905,1.0912,1.0913,1.0914,1.0915,1.0936,1.0936,1.0936,0,0,0,0,0,0,1.0824,1.0827,1.0857,1.0844,1.0848,1.0861,1.0868,1.087,1.0875,1.0888,1.0891,1.0881,1.0901,1.0903,1.0913,1.0913,1.0915,1.0916,1.0936,1.0936,1.0936,1.0928,0,0,0,0,0,0,1.0822,1.0827,1.083,1.0844,1.0849,1.0865,1.0868,1.0871,1.0877,1.0878,1.0891,1.0893,1.0901,1.0911,1.0914,1.0915,1.0916,1.0936,1.0936,1.0936,1.0928,1.0928,1.0927,0,0,0,0,0,1.0821,1.0827,1.083,1.0834,1.0854,1.0865,1.0867,1.0876,1.0877,1.088,1.0888,1.0893,1.0913,1.0912,1.0915,1.0916,1.0936,1.0936,1.0936,1.0929,1.0928,1.0927,0,0,0,0,0,0,1.0814,1.0829,1.0833,1.0844,1.0853,1.0867,1.0871,1.0876,1.0884,1.0885,1.0895,1.0898,1.0905,1.0912,1.0911,1.0922,1.0925,1.0925,1.0918,1.0917,1.0917,1.0915,1.0917,0,0,0,0,0,1.0813,1.0822,1.0835,1.0843,1.0848,1.0858,1.0864,1.0869,1.0879,1.0883,1.0892,1.09,1.0908,1.0913,1.0921,1.0929,1.0931,1.0931,1.0931,1.093,1.093,1.0933,1.0932,1.0936,1.0936,1.0936,0,0,1.0813,1.0822,1.0827,1.0842,1.085,1.0857,1.0862,1.087,1.0875,1.0884,1.0893,1.0899,1.0909,1.0917,1.0921,1.0923,1.093,1.093,1.093,1.093,1.0933,1.0932,1.0932,1.0936,1.0936,1.0936,0,0,1.0816,1.0824,1.0831,1.0838,1.0849,1.0856,1.0857,1.087,1.0874,1.0883,1.0889,1.0895,1.0909,1.0915,1.092,1.0922,1.0926,1.0924,1.0922,1.0924,1.0923,1.0923,1.0922,1.0922,1.0925,1.0925,1.0925,0,1.0814,1.0826,1.0834,1.0842,1.0847,1.0855,1.0861,1.0867,1.088,1.0883,1.0885,1.0901,1.0908,1.0916,1.0916,1.0921,1.0922,1.0923,1.0923,1.0923,1.0922,1.0921,1.0921,1.0924,1.0924,1.0924,1.0924,0,1.0822,1.083,1.0834,1.0845,1.0851,1.0858,1.0866,1.0871,1.0875,1.0881,1.0889,1.0898,1.0907,1.0909,1.0914,1.0917,1.0918,1.0921,1.0924,1.0921,1.0921,1.0921,1.0924,1.0924,1.0924,1.0924,0,0,1.0822,1.0836,1.0838,1.0842,1.0853,1.0859,1.0865,1.0874,1.0877,1.0885,1.0889,1.0899,1.0901,1.0907,1.0912,1.0914,1.0912,1.0917,1.0917,1.0914,1.0914,1.0911,1.0911,1.0915,1.0915,1.0915,1.0913,0,1.0825,1.0837,1.0844,1.0852,1.0858,1.0864,1.0869,1.0875,1.0881,1.0886,1.0891,1.0898,1.0901,1.0904,1.0906,1.0912,1.0912,1.0912,1.0918,1.0918,1.0914,1.0911,1.0908,1.0906,1.0913,1.0913,1.0913,0,1.0832,1.0838,1.0847,1.0855,1.0858,1.0862,1.0869,1.0875,1.0881,1.0885,1.0889,1.0894,1.0899,1.0901,1.0907,1.0907,1.0909,1.0912,1.0912,1.0913,1.0915,1.091,1.0905,1.0904,1.0912,1.0913,1.0913,0,1.0829,1.084,1.0846,1.085,1.086,1.0863,1.0867,1.0874,1.0877,1.0883,1.0885,1.0892,1.0895,1.0899,1.0904,1.0906,1.0909,1.0912,1.0911,1.091,1.0911,1.0911,1.0906,1.0914,1.0914,1.0914,1.0914,0,1.0832,1.0836,1.0845,1.0849,1.0853,1.086,1.0864,1.0869,1.0874,1.0878,1.0883,1.0887,1.0894,1.0898,1.0902,1.0905,1.0907,1.0909,1.091,1.0908,1.0907,1.0909,1.0909,1.0914,1.0914,1.0914,1.0914,0,1.083,1.0836,1.0843,1.0851,1.0853,1.0856,1.0863,1.0865,1.087,1.0874,1.0876,1.0883,1.0887,1.0893,1.0899,1.0902,1.0904,1.0906,1.0901,1.0902,1.09,1.0899,1.0895,1.0894,1.0904,1.0903,1.0903,0,1.0831,1.0835,1.0842,1.0845,1.0849,1.0854,1.0857,1.0863,1.0866,1.0872,1.0874,1.0878,1.0882,1.0888,1.0894,1.0898,1.0899,1.0897,1.09,1.0897,1.0898,1.0897,1.0897,1.0897,1.0897,1.0897,1.0897,0,1.0832,1.0834,1.0839,1.0844,1.0847,1.0851,1.0856,1.0858,1.0864,1.0867,1.0871,1.0874,1.0879,1.0883,1.0888,1.0891,1.0894,1.0895,1.0895,1.0893,1.089,1.089,1.0899,1.0896,1.0896,1.0896,1.0896,1.0896,1.0831,1.0833,1.0838,1.0843,1.0846,1.085,1.0852,1.0856,1.086,1.0864,1.0867,1.0871,1.0875,1.0881,1.0884,1.0886,1.0887,1.0887,1.0887,1.0887,1.0885,1.089,1.0887,1.0887,1.0887,1.0887,1.0887,0,1.083,1.0833,1.0837,1.0843,1.0845,1.0848,1.0852,1.0854,1.0857,1.0861,1.0864,1.0867,1.087,1.0875,1.0878,1.0878,1.0879,1.0878,1.0878,1.0878,1.0885,1.0884,1.0877,1.0877,1.0877,1.0877,1.0877,1.0877,1.0831,1.0834,1.0836,1.0841,1.0844,1.0847,1.0849,1.0851,1.0854,1.0857,1.086,1.0862,1.0866,1.0868,1.0871,1.0872,1.0872,1.087,1.0872,1.0877,1.0878,1.0879,1.0879,1.0871,1.0871,1.0865,1.0865,1.0865]}]]